EW0433 Weather Reports


Display with metric or nautical units.
time (UTC)temp
F
wind
direction
speed
MPH
gust
MPH
rain 1hr
in
rain 24hr
in
rain mn
in
humidity
%
barometer
mb
20200710214328 87 322 10.0 15.0 0.00 0.00 0.00 34 1015.1
20200710213837 88 296 8.0 18.0 0.00 0.00 0.00 34 1015.0
20200710213318 87 302 9.0 16.0 0.00 0.00 0.00 35 1015.1
20200710212818 88 312 10.0 16.0 0.00 0.00 0.00 34 1015.1
20200710212327 87 318 9.0 15.0 0.00 0.00 0.00 35 1015.1
20200710211825 87 303 9.0 15.0 0.00 0.00 0.00 36 1015.1
20200710211314 88 303 9.0 15.0 0.00 0.00 0.00 35 1015.1
20200710210817 87 301 8.0 15.0 0.00 0.00 0.00 37 1015.2
20200710210322 87 307 8.0 15.0 0.00 0.00 0.00 37 1015.1
20200710205821 88 295 9.0 15.0 0.00 0.00 0.00 37 1015.1
20200710205331 88 346 6.0 12.0 0.00 0.00 0.00 37 1015.1
20200710204814 89 320 3.0 9.0 0.00 0.00 0.00 38 1015.2
20200710204321 88 251 3.0 7.0 0.00 0.00 0.00 39 1015.2
20200710203822 87 106 2.0 10.0 0.00 0.00 0.00 42 1015.3
20200710203329 87 140 5.0 10.0 0.00 0.00 0.00 44 1015.2
20200710202838 86 107 4.0 10.0 0.00 0.00 0.00 44 1015.3
20200710202319 85 144 6.0 10.0 0.00 0.00 0.00 44 1015.3
20200710201818 86 158 4.0 8.0 0.00 0.00 0.00 45 1015.3
20200710201327 85 180 3.0 8.0 0.00 0.00 0.00 45 1015.4
20200710200829 85 170 4.0 9.0 0.00 0.00 0.00 45 1015.3
20200710200336 84 214 4.0 9.0 0.00 0.00 0.00 46 1015.3
20200710195813 85 176 4.0 9.0 0.00 0.00 0.00 46 1015.3
20200710195323 84 136 5.0 9.0 0.00 0.00 0.00 45 1015.3
20200710194823 84 173 6.0 9.0 0.00 0.00 0.00 47 1015.3
20200710194331 84 148 3.0 8.0 0.00 0.00 0.00 47 1015.4
20200710193835 83 138 5.0 9.0 0.00 0.00 0.00 47 1015.5
20200710193316 83 158 3.0 10.0 0.00 0.00 0.00 48 1015.5
20200710192824 82 158 7.0 10.0 0.00 0.00 0.00 49 1015.5
20200710192325 82 141 5.0 9.0 0.00 0.00 0.00 48 1015.4
20200710191825 83 190 5.0 8.0 0.00 0.00 0.00 47 1015.4
20200710191331 84 166 4.0 8.0 0.00 0.00 0.00 46 1015.4
20200710190839 85 220 3.0 6.0 0.00 0.00 0.00 44 1015.5
20200710190317 85 113 1.0 4.0 0.00 0.00 0.00 42 1015.5
20200710185827 83 86 2.0 6.0 0.00 0.00 0.00 43 1015.5
20200710185327 82 99 3.0 10.0 0.00 0.00 0.00 46 1015.5
20200710184835 81 145 6.0 10.0 0.00 0.00 0.00 46 1015.5
20200710184315 82 132 4.0 8.0 0.00 0.00 0.00 45 1015.5
20200710183822 81 171 3.0 6.0 0.00 0.00 0.00 45 1015.6
20200710183320 81 160 3.0 7.0 0.00 0.00 0.00 46 1015.7
20200710182829 81 216 3.0 8.0 0.00 0.00 0.00 46 1015.7
20200710182329 80 153 5.0 8.0 0.00 0.00 0.00 46 1015.7
20200710181835 79 87 3.0 8.0 0.00 0.00 0.00 48 1015.8
20200710181317 80 143 2.0 6.0 0.00 0.00 0.00 46 1015.8
20200710180824 79 230 1.0 5.0 0.00 0.00 0.00 47 1015.8
20200710180326 79 154 1.0 6.0 0.00 0.00 0.00 49 1015.8
20200710175829 78 178 3.0 6.0 0.00 0.00 0.00 48 1015.9
20200710175328 76 164 1.0 6.0 0.00 0.00 0.00 50 1015.9
20200710174835 76 161 2.0 6.0 0.00 0.00 0.00 50 1015.9
20200710174341 76 166 2.0 7.0 0.00 0.00 0.00 51 1016.0
20200710173819 75 155 2.0 7.0 0.00 0.00 0.00 52 1016.0
20200710173322 75 135 4.0 7.0 0.00 0.00 0.00 53 1016.0
20200710172830 75 178 3.0 6.0 0.00 0.00 0.00 53 1015.9
20200710172335 74 172 4.0 6.0 0.00 0.00 0.00 54 1015.9
20200710171814 74 145 3.0 6.0 0.00 0.00 0.00 54 1015.9
20200710171322 74 174 5.0 6.0 0.00 0.00 0.00 53 1015.9
20200710170821 74 152 2.0 5.0 0.00 0.00 0.00 55 1015.9
20200710170321 73 152 3.0 5.0 0.00 0.00 0.00 56 1015.9
20200710165826 72 244 1.0 5.0 0.00 0.00 0.00 57 1015.9
20200710165338 71 210 2.0 5.0 0.00 0.00 0.00 58 1016.0
20200710164831 70 130 2.0 5.0 0.00 0.00 0.00 59 1016.0
20200710164319 70 168 3.0 5.0 0.00 0.00 0.00 59 1016.0
20200710163820 69 181 2.0 7.0 0.00 0.00 0.00 61 1015.9
20200710163321 68 164 3.0 7.0 0.00 0.00 0.00 61 1016.0
20200710162825 68 176 3.0 7.0 0.00 0.00 0.00 61 1016.0
20200710162332 68 173 4.0 6.0 0.00 0.00 0.00 61 1015.9
20200710161829 68 165 3.0 5.0 0.00 0.00 0.00 62 1015.9
20200710161339 67 147 2.0 5.0 0.00 0.00 0.00 63 1015.9
20200710160827 67 147 1.0 3.0 0.00 0.00 0.00 63 1016.0
20200710160315 67 147 2.0 5.0 0.00 0.00 0.00 63 1016.1
20200710155824 66 162 2.0 5.0 0.00 0.00 0.00 65 1016.1
20200710155321 66 122 2.0 5.0 0.00 0.00 0.00 66 1016.2
20200710154821 65 184 1.0 4.0 0.00 0.00 0.00 67 1016.1
20200710154335 64 179 1.0 3.0 0.00 0.00 0.00 69 1016.1
20200710153830 62 313 0.0 2.0 0.00 0.00 0.00 70 1016.1
20200710153331 61 313 1.0 2.0 0.00 0.00 0.00 71 1016.1
20200710152815 61 313 1.0 3.0 0.00 0.00 0.00 72 1016.1
20200710152316 60 313 1.0 6.0 0.00 0.00 0.00 74 1016.0
20200710151817 59 317 3.0 7.0 0.00 0.00 0.00 75 1016.0
20200710151325 59 311 4.0 7.0 0.00 0.00 0.00 75 1016.0
20200710150830 58 292 5.0 7.0 0.00 0.00 0.00 76 1015.9
20200710150326 58 301 5.0 8.0 0.00 0.00 0.00 77 1015.9
20200710145831 57 294 5.0 9.0 0.00 0.00 0.00 77 1015.8
20200710145341 57 299 7.0 9.0 0.00 0.00 0.00 77 1015.8
20200710144819 56 293 4.0 7.0 0.00 0.00 0.00 77 1015.8
20200710144318 56 295 5.0 7.0 0.00 0.00 0.00 78 1015.8
20200710143821 56 299 3.0 6.0 0.00 0.00 0.00 78 1015.8
20200710143321 56 313 3.0 5.0 0.00 0.00 0.00 79 1015.7
20200710142829 55 313 2.0 5.0 0.00 0.00 0.00 79 1015.6
20200710142320 55 297 3.0 5.0 0.00 0.00 0.00 80 1015.6
20200710141827 54 295 0.0 0.0 0.00 0.00 0.00 81 1015.6
20200710141335 54 295 0.0 1.0 0.00 0.00 0.00 82 1015.5
20200710140816 54 295 0.0 2.0 0.00 0.00 0.00 82 1015.5
20200710140315 53 295 0.0 2.0 0.00 0.00 0.00 83 1015.5
20200710135824 53 295 1.0 2.0 0.00 0.00 0.00 83 1015.4
20200710135333 53 295 1.0 2.0 0.00 0.00 0.00 83 1015.4
20200710134847 53 295 0.0 5.0 0.00 0.00 0.00 83 1015.3
20200710134323 52 295 1.0 5.0 0.00 0.00 0.00 83 1015.3
20200710133824 52 1 0.0 2.0 0.00 0.00 0.00 83 1015.2
20200710133324 52 1 1.0 2.0 0.00 0.00 0.00 82 1015.2
20200710132835 53 305 0.0 2.0 0.00 0.00 0.00 82 1015.2
20200710132313 53 305 0.0 2.0 0.00 0.00 0.00 82 1015.1
20200710131821 53 305 0.0 5.0 0.00 0.00 0.00 82 1015.0
20200710131324 53 305 0.0 5.0 0.00 0.00 0.00 82 1015.0
20200710130824 53 313 1.0 5.0 0.00 0.00 0.00 82 1014.8
20200710130322 53 317 2.0 5.0 0.00 0.00 0.00 82 1014.8
20200710125831 53 291 1.0 9.0 0.00 0.00 0.00 82 1014.8
20200710125339 53 315 5.0 10.0 0.00 0.00 0.00 82 1014.7
20200710124818 53 300 6.0 10.0 0.00 0.00 0.00 82 1014.7
20200710124326 53 300 7.0 11.0 0.00 0.00 0.00 82 1014.7
20200710123822 53 306 5.0 9.0 0.00 0.00 0.00 82 1014.7
20200710123324 53 309 6.0 8.0 0.00 0.00 0.00 82 1014.7
20200710122831 53 301 5.0 9.0 0.00 0.00 0.00 81 1014.7
20200710122336 53 295 5.0 9.0 0.00 0.00 0.00 81 1014.6
20200710121817 54 311 6.0 10.0 0.00 0.00 0.00 80 1014.7
20200710121326 54 325 7.0 9.0 0.00 0.00 0.00 80 1014.6
20200710120828 54 313 4.0 7.0 0.00 0.00 0.00 79 1014.6
20200710120332 55 297 6.0 7.0 0.00 0.00 0.00 79 1014.6
20200710115814 55 274 1.0 3.0 0.00 0.00 0.00 79 1014.6
20200710115322 55 301 0.0 5.0 0.00 0.00 0.00 79 1014.5
20200710114820 55 300 1.0 7.0 0.00 0.00 0.00 79 1014.4
20200710114329 55 309 4.0 7.0 0.00 0.00 0.00 79 1014.3
20200710113829 55 323 1.0 6.0 0.00 0.00 0.00 79 1014.2
20200710113329 55 322 2.0 7.0 0.00 0.00 0.00 79 1014.2
20200710112817 55 299 5.0 7.0 0.00 0.00 0.00 79 1014.2
20200710112326 55 303 3.0 8.0 0.00 0.00 0.00 79 1014.1
20200710111826 55 318 5.0 8.0 0.00 0.00 0.00 78 1014.1
20200710111335 55 301 4.0 8.0 0.00 0.00 0.00 78 1014.0
20200710110814 55 316 4.0 9.0 0.00 0.00 0.00 77 1014.0
20200710110315 56 303 5.0 9.0 0.00 0.00 0.00 77 1014.0
20200710105821 56 299 1.0 4.0 0.00 0.00 0.00 76 1014.0
20200710105322 56 266 1.0 7.0 0.00 0.00 0.00 76 1014.0
20200710104828 56 268 2.0 7.0 0.00 0.00 0.00 75 1014.0
20200710104337 56 286 1.0 8.0 0.00 0.00 0.00 75 1014.0
20200710103817 57 293 5.0 8.0 0.00 0.00 0.00 74 1013.8
20200710103315 57 297 3.0 7.0 0.00 0.00 0.00 73 1013.9
20200710102825 58 298 4.0 6.0 0.00 0.00 0.00 72 1013.8
20200710102335 58 195 0.0 6.0 0.00 0.00 0.00 72 1013.8
20200710101815 59 152 3.0 6.0 0.00 0.00 0.00 71 1013.7
20200710101322 59 274 1.0 5.0 0.00 0.00 0.00 70 1013.7
20200710100818 60 347 1.0 7.0 0.00 0.00 0.00 70 1013.7
20200710100324 60 255 1.0 7.0 0.00 0.00 0.00 70 1013.7
20200710095823 59 32 2.0 7.0 0.00 0.00 0.00 70 1013.7
20200710095325 59 301 3.0 7.0 0.00 0.00 0.00 71 1013.7
20200710094833 58 317 4.0 9.0 0.00 0.00 0.00 72 1013.7
20200710094339 58 307 5.0 9.0 0.00 0.00 0.00 72 1013.7
20200710093822 58 311 5.0 10.0 0.00 0.00 0.00 72 1013.6
20200710093320 58 304 5.0 11.0 0.00 0.00 0.00 72 1013.7
20200710092914 58 303 6.0 11.0 0.00 0.00 0.00 72 1013.6
20200710092325 59 298 7.0 11.0 0.00 0.00 0.00 71 1013.6
20200710091816 59 309 7.0 9.0 0.00 0.00 0.00 70 1013.7
20200710091323 60 307 6.0 12.0 0.00 0.00 0.00 68 1013.7
20200710090831 61 290 4.0 12.0 0.00 0.00 0.00 67 1013.7
20200710090330 61 307 4.0 11.0 0.00 0.00 0.00 67 1013.6
20200710085823 61 2 5.0 10.0 0.00 0.00 0.00 67 1013.7
20200710085321 61 305 5.0 12.0 0.00 0.00 0.00 67 1013.7
20200710084820 61 326 6.0 13.0 0.00 0.00 0.00 67 1013.6
20200710084328 61 313 5.0 10.0 0.00 0.00 0.00 67 1013.6
20200710083813 61 311 7.0 10.0 0.00 0.00 0.00 67 1013.5
20200710083331 62 294 8.0 10.0 0.00 0.00 0.00 66 1013.5
20200710082818 62 299 6.0 10.0 0.00 0.00 0.00 65 1013.5
20200710082318 63 305 4.0 8.0 0.00 0.00 0.00 63 1013.5
20200710081824 64 311 2.0 8.0 0.00 0.00 0.00 62 1013.5
20200710081334 65 321 3.0 9.0 0.00 0.00 0.00 60 1013.5
20200710080900 66 327 4.0 12.0 0.00 0.00 0.00 59 1013.5
20200710080329 66 325 5.0 12.0 0.00 0.00 0.00 59 1013.5
20200710075816 66 299 5.0 14.0 0.00 0.00 0.00 58 1013.5
20200710075317 66 315 4.0 15.0 0.00 0.00 0.00 58 1013.6
20200710074824 66 332 6.0 15.0 0.00 0.00 0.00 58 1013.5
20200710074336 66 313 4.0 8.0 0.00 0.00 0.00 58 1013.6
20200710073816 66 337 4.0 12.0 0.00 0.00 0.00 58 1013.6
20200710073317 66 359 6.0 12.0 0.00 0.00 0.00 58 1013.6
20200710072824 66 339 6.0 11.0 0.00 0.00 0.00 58 1013.6
20200710072333 65 305 6.0 11.0 0.00 0.00 0.00 60 1013.7
20200710071812 65 321 7.0 11.0 0.00 0.00 0.00 60 1013.7
20200710071321 66 296 5.0 13.0 0.00 0.00 0.00 58 1013.6
20200710070819 66 27 6.0 13.0 0.00 0.00 0.00 58 1013.5
20200710070327 65 334 8.0 13.0 0.00 0.00 0.00 60 1013.6
20200710065827 65 310 7.0 12.0 0.00 0.00 0.00 60 1013.5
20200710065315 65 320 7.0 13.0 0.00 0.00 0.00 61 1013.4
20200710064815 65 319 9.0 14.0 0.00 0.00 0.00 60 1013.4
20200710064323 66 321 8.0 14.0 0.00 0.00 0.00 59 1013.4
20200710063824 66 307 9.0 15.0 0.00 0.00 0.00 59 1013.3
20200710063324 66 326 10.0 15.0 0.00 0.00 0.00 59 1013.4
20200710062833 68 305 9.0 14.0 0.00 0.00 0.00 56 1013.3
20200710062313 68 310 7.0 13.0 0.00 0.00 0.00 56 1013.2
20200710061820 67 322 7.0 15.0 0.00 0.00 0.00 56 1013.2
20200710061331 67 345 8.0 14.0 0.00 0.00 0.00 57 1013.2
20200710060817 67 333 8.0 13.0 0.00 0.00 0.00 58 1013.2
20200710060315 66 299 7.0 13.0 0.00 0.00 0.00 59 1013.2
20200710055824 66 300 8.0 19.0 0.00 0.00 0.00 60 1013.1
20200710055323 66 322 10.0 19.0 0.00 0.00 0.00 60 1013.2
20200710054831 66 305 9.0 16.0 0.00 0.00 0.00 59 1013.1
20200710054319 66 305 9.0 16.0 0.00 0.00 0.00 59 1013.1
20200710053820 67 313 9.0 15.0 0.00 0.00 0.00 58 1013.2
20200710053322 67 330 8.0 18.0 0.00 0.00 0.00 58 1013.1
20200710052829 67 334 8.0 18.0 0.00 0.00 0.00 59 1013.1
20200710052330 67 291 8.0 18.0 0.00 0.00 0.00 58 1013.1
20200710051816 67 295 9.0 16.0 0.00 0.00 0.00 58 1013.0
20200710051319 67 303 10.0 19.0 0.00 0.00 0.00 57 1012.9
20200710050821 68 319 11.0 19.0 0.00 0.00 0.00 56 1012.9
20200710050321 68 352 9.0 18.0 0.00 0.00 0.00 56 1012.8
20200710045828 68 333 10.0 18.0 0.00 0.00 0.00 56 1012.6
20200710045330 67 326 9.0 19.0 0.00 0.00 0.00 57 1012.5
20200710044838 67 318 10.0 19.0 0.00 0.00 0.00 58 1012.4
20200710044314 67 317 11.0 18.0 0.00 0.00 0.00 57 1012.5
20200710043821 67 320 9.0 21.0 0.00 0.00 0.00 57 1012.4
20200710043321 67 303 12.0 21.0 0.00 0.00 0.00 57 1012.3
20200710042831 67 342 9.0 19.0 0.00 0.00 0.00 57 1012.2
20200710042339 67 318 9.0 18.0 0.00 0.00 0.00 58 1012.2
20200710041816 67 320 9.0 19.0 0.00 0.00 0.00 58 1012.3
20200710041324 67 328 12.0 19.0 0.00 0.00 0.00 58 1012.3
20200710040824 67 298 10.0 15.0 0.00 0.00 0.00 57 1012.3
20200710040324 68 332 7.0 14.0 0.00 0.00 0.00 57 1012.2
20200710035813 68 308 9.0 19.0 0.00 0.00 0.00 56 1012.1
20200710035314 68 294 9.0 19.0 0.00 0.00 0.00 56 1012.0
20200710034821 69 325 8.0 16.0 0.00 0.00 0.00 55 1011.9
20200710034336 69 315 9.0 21.0 0.00 0.00 0.00 55 1011.7
20200710033832 69 312 9.0 21.0 0.00 0.00 0.00 54 1011.8
20200710033312 70 336 10.0 21.0 0.00 0.00 0.00 54 1011.7
20200710032818 70 305 11.0 21.0 0.00 0.00 0.00 53 1011.6
20200710032323 71 307 10.0 23.0 0.00 0.00 0.00 52 1011.6
20200710031825 71 314 11.0 23.0 0.00 0.00 0.00 52 1011.5
20200710031335 71 324 14.0 21.0 0.00 0.00 0.00 52 1011.4
20200710030815 72 324 12.0 21.0 0.00 0.00 0.00 51 1011.4
20200710030316 72 326 13.0 22.0 0.00 0.00 0.00 51 1011.5
20200710025826 72 323 13.0 23.0 0.00 0.00 0.00 51 1011.5
20200710025332 72 321 15.0 23.0 0.00 0.00 0.00 50 1011.4
20200710024811 73 314 14.0 21.0 0.00 0.00 0.00 50 1011.5
20200710024319 73 330 11.0 19.0 0.00 0.00 0.00 50 1011.6
20200710023814 73 326 10.0 18.0 0.00 0.00 0.00 50 1011.6
20200710023315 73 330 9.0 19.0 0.00 0.00 0.00 50 1011.5
20200710022822 73 352 9.0 19.0 0.00 0.00 0.00 50 1011.4
20200710022332 73 301 9.0 15.0 0.00 0.00 0.00 49 1011.5
20200710021831 73 309 6.0 18.0 0.00 0.00 0.00 49 1011.5
20200710021319 73 352 9.0 18.0 0.00 0.00 0.00 49 1011.5
20200710020820 74 310 10.0 22.0 0.00 0.00 0.00 49 1011.4
20200710020320 74 290 10.0 22.0 0.00 0.00 0.00 49 1011.4
20200710015829 75 295 10.0 21.0 0.00 0.00 0.00 48 1011.4
20200710015338 75 332 10.0 22.0 0.00 0.00 0.00 48 1011.3
20200710014818 75 313 11.0 20.0 0.00 0.00 0.00 47 1011.2
20200710014327 75 289 12.0 20.0 0.00 0.00 0.00 47 1011.3
20200710013827 76 306 13.0 20.0 0.00 0.00 0.00 47 1011.2
20200710013327 76 307 12.0 21.0 0.00 0.00 0.00 47 1011.3
20200710012815 76 320 10.0 20.0 0.00 0.00 0.00 47 1011.1
20200710012317 76 308 13.0 20.0 0.00 0.00 0.00 46 1011.2
20200710011825 77 308 12.0 20.0 0.00 0.00 0.00 46 1011.2
20200710011333 77 318 10.0 22.0 0.00 0.00 0.00 46 1011.2
20200710010815 77 320 15.0 22.0 0.00 0.00 0.00 46 1011.3
20200710010315 77 298 13.0 21.0 0.00 0.00 0.00 45 1011.3
20200710005822 78 318 11.0 20.0 0.00 0.00 0.00 44 1011.3
20200710005322 78 317 13.0 20.0 0.00 0.00 0.00 44 1011.4
20200710004813 78 313 12.0 21.0 0.00 0.00 0.00 44 1011.4
20200710004313 78 310 13.0 21.0 0.00 0.00 0.00 44 1011.5
20200710003822 78 286 11.0 20.0 0.00 0.00 0.00 45 1011.5
20200710003320 78 334 13.0 21.0 0.00 0.00 0.00 45 1011.6
20200710002828 78 332 13.0 22.0 0.00 0.00 0.00 45 1011.5
20200710002331 78 295 14.0 22.0 0.00 0.00 0.00 45 1011.5
20200710001818 78 313 14.0 24.0 0.00 0.00 0.00 45 1011.4
20200710001321 78 312 15.0 24.0 0.00 0.00 0.00 45 1011.5
20200710000832 79 315 13.0 24.0 0.00 0.00 0.00 45 1011.6
20200710000331 78 338 13.0 24.0 0.00 0.00 0.00 45 1011.6
20200709235832 79 282 14.0 21.0 0.00 0.00 0.00 45 1011.6
20200709235313 80 309 12.0 20.0 0.00 0.00 0.00 44 1011.6
20200709234820 79 289 13.0 21.0 0.00 0.00 0.00 44 1011.6
20200709234318 80 311 10.0 21.0 0.00 0.00 0.00 44 1011.7
20200709233823 80 326 13.0 21.0 0.00 0.00 0.00 43 1011.8
20200709233324 81 313 10.0 21.0 0.00 0.00 0.00 43 1011.8
20200709232834 81 289 11.0 21.0 0.00 0.00 0.00 44 1011.7
20200709232333 81 318 10.0 18.0 0.00 0.00 0.00 44 1011.7
20200709231838 81 304 9.0 19.0 0.00 0.00 0.00 44 1011.8
20200709231316 81 329 12.0 18.0 0.00 0.00 0.00 43 1011.8
20200709230822 82 314 11.0 19.0 0.00 0.00 0.00 43 1011.7
20200709230319 82 311 11.0 19.0 0.00 0.00 0.00 43 1011.8
20200709225828 83 320 11.0 19.0 0.00 0.00 0.00 42 1011.8
20200709225330 83 336 11.0 19.0 0.00 0.00 0.00 42 1011.8
20200709224836 84 297 12.0 19.0 0.00 0.00 0.00 42 1011.7
20200709224318 84 304 11.0 19.0 0.00 0.00 0.00 42 1011.7
20200709223823 84 325 9.0 19.0 0.00 0.00 0.00 42 1011.7
20200709223323 83 304 10.0 21.0 0.00 0.00 0.00 42 1011.7
20200709222813 84 332 9.0 18.0 0.00 0.00 0.00 41 1011.7
20200709222313 84 301 11.0 19.0 0.00 0.00 0.00 40 1011.7
20200709221814 85 301 10.0 21.0 0.00 0.00 0.00 39 1011.6
20200709221322 85 295 14.0 20.0 0.00 0.00 0.00 38 1011.5
20200709220829 85 302 13.0 19.0 0.00 0.00 0.00 38 1011.4
20200709220330 86 317 14.0 21.0 0.00 0.00 0.00 37 1011.4
20200709215816 86 309 14.0 20.0 0.00 0.00 0.00 37 1011.4
20200709215318 86 332 11.0 21.0 0.00 0.00 0.00 39 1011.4
20200709214820 85 301 13.0 21.0 0.00 0.00 0.00 39 1011.4